Simultaneous Nadir Overpasses (SNOs) Predictions

Prediction of SNOs between FY3D and NOAA-19 Satellite Orbit:

Table of predicted SNOs for the next 14.0 days since TLE Epoch: 11/16/2019
Index Date (FY3D) Time (FY3D) Lat,Lon (FY3D) SZA (FY3D ) Date (NOAA-19) Time (NOAA-19) Lat,Lon (NOAA-19) SZA (NOAA-19 ) Distance(km) Time Diff (sec)
1 11/22/2019 14:57:32 79.60, -78.47 101.08 11/22/2019 14:56:27 79.62, -82.34 101.48 77.60 65
2 11/22/2019 15:48:23 -79.80, 87.11 78.60 11/22/2019 15:47:23 -79.81, 86.99 78.55 2.59 60
3 11/22/2019 16:39:08 79.82,-105.78 101.46 11/22/2019 16:38:21 79.80,-105.85 101.46 2.72 47
4 11/22/2019 17:29:53 -79.82, 61.49 78.53 11/22/2019 17:29:24 -79.80, 61.40 78.54 3.20 29
5 11/22/2019 18:20:37 79.82,-131.12 101.47 11/22/2019 18:20:21 79.82,-131.13 101.47 0.19 16
6 11/22/2019 19:11:22 -79.82, 36.15 78.52 11/22/2019 19:11:24 -79.82, 36.12 78.53 0.68 2
7 11/22/2019 20:02:06 79.81,-156.46 101.47 11/22/2019 20:02:21 79.84,-156.41 101.48 2.76 15
8 11/22/2019 20:52:51 -79.82, 10.82 78.52 11/22/2019 20:53:24 -79.84, 10.84 78.51 2.19 33
9 11/22/2019 21:43:36 79.84, 177.92 101.54 11/22/2019 21:44:22 79.83, 178.01 101.50 2.16 46
10 11/22/2019 22:34:21 -79.84, -14.81 78.45 11/22/2019 22:35:25 -79.83, -14.75 78.50 2.00 64




NCC Satellite Simultaneous Nadir Overpasses (SNOs) Prediction Service
